TimeMST,TemperatureF,Dew PointF,Humidity,Sea Level PressureIn,VisibilityMPH,Wind Direction,Wind SpeedMPH,Gust SpeedMPH,PrecipitationIn,Events,Conditions,WindDirDegrees,DateUTC
12:08 AM,26.6,-2.2,29,30.37,10.0,NNE,19.6,28.8,N/A,,Clear,30,2013-01-22 07:08:00
12:28 AM,26.6,-5.8,24,30.36,10.0,NE,23.0,26.5,N/A,,Clear,40,2013-01-22 07:28:00
12:48 AM,26.6,-9.4,21,30.36,10.0,NE,20.7,27.6,N/A,,Clear,40,2013-01-22 07:48:00
1:08 AM,26.6,-9.4,21,30.37,10.0,NNE,24.2,27.6,N/A,,Clear,30,2013-01-22 08:08:00
1:28 AM,26.6,-13.0,17,30.37,10.0,NNE,20.7,28.8,N/A,,Clear,30,2013-01-22 08:28:00
1:48 AM,26.6,-13.0,17,30.37,10.0,NE,18.4,28.8,N/A,,Clear,40,2013-01-22 08:48:00
2:08 AM,26.6,-13.0,17,30.37,10.0,NE,17.3,28.8,N/A,,Clear,40,2013-01-22 09:08:00
2:28 AM,24.8,-13.0,19,30.38,10.0,NE,16.1,24.2,N/A,,Clear,40,2013-01-22 09:28:00
2:48 AM,24.8,-14.8,17,30.38,10.0,NE,13.8,19.6,N/A,,Clear,40,2013-01-22 09:48:00
3:08 AM,26.6,-14.8,16,30.38,10.0,NNE,13.8,24.2,N/A,,Clear,20,2013-01-22 10:08:00
3:28 AM,26.6,-14.8,16,30.38,10.0,NE,6.9,17.3,N/A,,Clear,40,2013-01-22 10:28:00
3:48 AM,24.8,-14.8,17,30.38,10.0,North,3.5,-,N/A,,Clear,10,2013-01-22 10:48:00
4:08 AM,26.6,-14.8,16,30.37,10.0,North,5.8,-,N/A,,Clear,10,2013-01-22 11:08:00
4:28 AM,24.8,-14.8,17,30.37,10.0,SW,3.5,-,N/A,,Clear,220,2013-01-22 11:28:00
4:48 AM,26.6,-16.6,14,30.36,10.0,NE,5.8,-,N/A,,Clear,40,2013-01-22 11:48:00
5:08 AM,26.6,-18.4,13,30.36,10.0,NNE,9.2,-,N/A,,Clear,20,2013-01-22 12:08:00
5:28 AM,26.6,-20.2,12,30.37,10.0,North,9.2,-,N/A,,Clear,10,2013-01-22 12:28:00
5:48 AM,26.6,-20.2,12,30.37,10.0,SSW,5.8,-,N/A,,Clear,210,2013-01-22 12:48:00
6:08 AM,26.6,-18.4,13,30.38,10.0,West,6.9,-,N/A,,Clear,260,2013-01-22 13:08:00
6:28 AM,26.6,-14.8,16,30.38,10.0,SW,12.7,-,N/A,,Clear,220,2013-01-22 13:28:00
6:48 AM,24.8,-16.6,16,30.39,10.0,SSW,11.5,-,N/A,,Clear,210,2013-01-22 13:48:00
7:08 AM,23.0,-16.6,17,30.39,10.0,SW,12.7,-,N/A,,Clear,230,2013-01-22 14:08:00
7:28 AM,23.0,-13.0,20,30.39,10.0,SW,10.4,20.7,N/A,,Clear,230,2013-01-22 14:28:00
7:48 AM,24.8,-13.0,19,30.39,10.0,SSW,12.7,-,N/A,,Clear,210,2013-01-22 14:48:00
8:08 AM,26.6,-13.0,17,30.39,10.0,SSW,11.5,-,N/A,,Clear,210,2013-01-22 15:08:00
8:28 AM,26.6,-13.0,17,30.40,10.0,SSW,8.1,-,N/A,,Clear,210,2013-01-22 15:28:00
8:48 AM,28.4,-13.0,16,30.41,10.0,SW,5.8,-,N/A,,Clear,230,2013-01-22 15:48:00
9:08 AM,32.0,-13.0,14,30.42,10.0,WSW,4.6,-,N/A,,Clear,240,2013-01-22 16:08:00
9:28 AM,32.0,-14.8,13,30.42,10.0,NW,3.5,-,N/A,,Clear,320,2013-01-22 16:28:00
9:48 AM,32.0,-13.0,14,30.44,10.0,NNE,6.9,-,N/A,,Clear,20,2013-01-22 16:48:00
10:08 AM,32.0,-13.0,14,30.44,10.0,Calm,Calm,-,N/A,,Clear,0,2013-01-22 17:08:00
10:28 AM,33.8,-13.0,13,30.45,10.0,NW,4.6,-,N/A,,Clear,310,2013-01-22 17:28:00
10:48 AM,33.8,-14.8,12,30.45,10.0,NNW,3.5,-,N/A,,Clear,340,2013-01-22 17:48:00
11:08 AM,33.8,-13.0,13,30.45,10.0,NE,5.8,-,N/A,,Clear,40,2013-01-22 18:08:00
11:28 AM,35.6,-14.8,11,30.45,10.0,North,6.9,-,N/A,,Clear,10,2013-01-22 18:28:00
11:48 AM,35.6,-14.8,11,30.44,10.0,North,6.9,-,N/A,,Clear,350,2013-01-22 18:48:00
12:08 PM,35.6,-14.8,11,30.44,10.0,NNE,10.4,17.3,N/A,,Clear,20,2013-01-22 19:08:00
12:28 PM,35.6,-14.8,11,30.43,10.0,North,6.9,-,N/A,,Clear,360,2013-01-22 19:28:00
12:48 PM,35.6,-18.4,9,30.43,10.0,North,8.1,17.3,N/A,,Clear,10,2013-01-22 19:48:00
1:08 PM,37.4,-11.2,12,30.42,10.0,West,3.5,-,N/A,,Clear,270,2013-01-22 20:08:00
1:28 PM,37.4,-13.0,11,30.42,10.0,North,3.5,-,N/A,,Clear,360,2013-01-22 20:28:00
1:48 PM,35.6,-14.8,11,30.42,10.0,North,8.1,-,N/A,,Clear,360,2013-01-22 20:48:00
2:08 PM,37.4,-14.8,10,30.42,10.0,Calm,Calm,-,N/A,,Clear,0,2013-01-22 21:08:00
2:28 PM,39.2,-13.0,10,30.42,10.0,NNW,5.8,-,N/A,,Clear,330,2013-01-22 21:28:00
2:48 PM,37.4,-16.6,9,30.42,10.0,NNW,8.1,17.3,N/A,,Clear,330,2013-01-22 21:48:00
3:08 PM,35.6,-22.0,8,30.43,10.0,NNW,8.1,20.7,N/A,,Clear,340,2013-01-22 22:08:00
3:28 PM,37.4,-16.6,9,30.43,10.0,NNW,10.4,21.9,N/A,,Clear,330,2013-01-22 22:28:00
3:48 PM,37.4,-16.6,9,30.43,10.0,Calm,Calm,-,N/A,,Clear,0,2013-01-22 22:48:00
4:09 PM,35.6,-16.6,10,30.43,10.0,NNW,3.5,-,N/A,,Clear,340,2013-01-22 23:09:00
4:28 PM,35.6,-16.6,10,30.44,10.0,NNW,6.9,-,N/A,,Clear,340,2013-01-22 23:28:00
4:49 PM,33.8,-16.6,11,30.44,10.0,NNW,8.1,-,N/A,,Clear,330,2013-01-22 23:49:00
5:09 PM,32.0,-16.6,12,30.44,10.0,NNW,5.8,-,N/A,,Clear,340,2013-01-23 00:09:00
5:29 PM,32.0,-16.6,12,30.44,10.0,NNW,3.5,-,N/A,,Clear,330,2013-01-23 00:29:00
5:49 PM,32.0,-16.6,12,30.44,10.0,NNW,5.8,-,N/A,,Clear,330,2013-01-23 00:49:00
6:09 PM,32.0,-16.6,12,30.44,10.0,NNW,5.8,-,N/A,,Clear,330,2013-01-23 01:09:00
6:28 PM,32.0,-23.8,8,30.45,10.0,NNW,6.9,-,N/A,,Clear,330,2013-01-23 01:28:00
6:49 PM,32.0,-25.6,7,30.45,10.0,NNW,5.8,-,N/A,,Clear,340,2013-01-23 01:49:00
7:09 PM,32.0,-27.4,7,30.45,10.0,Calm,Calm,-,N/A,,Clear,0,2013-01-23 02:09:00
7:29 PM,32.0,-27.4,7,30.46,10.0,WNW,5.8,-,N/A,,Clear,290,2013-01-23 02:29:00
7:49 PM,30.2,-22.0,10,30.46,10.0,Calm,Calm,-,N/A,,Clear,0,2013-01-23 02:49:00
8:09 PM,30.2,-20.2,10,30.47,10.0,SW,4.6,-,N/A,,Clear,220,2013-01-23 03:09:00
8:29 PM,30.2,-14.8,14,30.46,10.0,SSW,5.8,-,N/A,,Clear,210,2013-01-23 03:29:00
8:49 PM,30.2,-14.8,14,30.47,10.0,SW,6.9,-,N/A,,Clear,230,2013-01-23 03:49:00
9:09 PM,30.2,-14.8,14,30.48,10.0,SSW,4.6,-,N/A,,Clear,210,2013-01-23 04:09:00
9:29 PM,30.2,-18.4,11,30.48,10.0,NNW,3.5,-,N/A,,Clear,340,2013-01-23 04:29:00
9:49 PM,32.0,-27.4,7,30.48,10.0,Calm,Calm,-,N/A,,Clear,0,2013-01-23 04:49:00
10:09 PM,30.2,-18.4,11,30.47,10.0,SSW,5.8,-,N/A,,Clear,210,2013-01-23 05:09:00
10:29 PM,32.0,-18.4,11,30.48,10.0,SW,6.9,-,N/A,,Clear,230,2013-01-23 05:29:00
10:49 PM,30.2,-31.0,6,30.48,10.0,WNW,6.9,-,N/A,,Clear,290,2013-01-23 05:49:00
11:09 PM,30.2,-34.6,5,30.49,10.0,West,8.1,-,N/A,,Clear,270,2013-01-23 06:09:00
11:29 PM,30.2,-36.4,5,30.49,10.0,West,5.8,-,N/A,,Clear,260,2013-01-23 06:29:00
11:49 PM,32.0,-40.0,4,30.49,10.0,SW,4.6,-,N/A,,Clear,220,2013-01-23 06:49:00